SCP
0 0 0 0 0 0 0 0 0 0 0 0 0 0 0 0 0 0 0 0 0 0
0 0 0 0 0 0 0 0 0 0 0 0 0 0 0 0 0 0 0 0 0 0
0 0 0 0 0 0 0 0 0 0 0 0 0 0 0 0 0 0 0 0 0 0
0 0 0 0 0 0 0 0 0 0 0 0 0 0 0 0 0 0 0 0 0 0
0 0 0 0 0 0 0 0 0 0 0 0 0 0 0 0 0 0 0 0 0 0
0 0 0 0 0 0 0 0 0 0 0 0 0 0 0 0 0 0 0 0 0 0
0 0 0 0 0 0 0 0 0 0 0 0 0 0 0 0 0 0 0 0 0 0
0 0 0 0 0 0 0 0 0 0 0 0 0 0 0 0 0 0 0 0 0 0
0 0 0 0 0 0 0 0 0 0 0 0 0 0 0 0 0 0 0 0 0 0
0 0 0 0 0 0 0 0 0 0 0 0 0 0 0 0 0 0 0 0 0 0
0 0 0 0 0 0 0 0 0 0 0 0 0 0 0 0 0 0 0 0 0 0
0 0 0 0 0 0 0 0 0 0 0 0 0 0 0 0 0 0 0 0 0 0
0 0 0 0 0 0 0 0 0 0 0 0 0 0 0 0 0 0 0 0 0 0
0 0 0 0 0 0 0 0 0 0 0 0 0 0 0 0 0 0 0 0 0 0
Wind_Speed_500mb
71 72 68 66 64 60 52 46 42 42 42 41 42 45 49 51 53 53 55 56 56 59
76 74 66 61 59 56 50 46 43 43 43 44 43 43 42 45 44 43 44 46 47 50
66 71 68 65 61 59 53 48 46 45 44 42 42 40 38 41 41 46 47 47 48 47
64 62 65 63 61 58 54 52 50 47 45 44 39 39 42 42 44 48 49 41 42 41
54 52 53 54 54 52 52 51 49 45 43 42 41 39 43 42 42 46 30 40 45 34
52 52 50 48 48 49 48 47 44 43 40 40 39 42 40 37 42 43 39 34 36 42
49 46 45 44 44 43 41 41 41 41 39 37 40 37 41 39 33 35 34 39 49 40
42 42 41 39 37 36 35 35 34 33 32 30 29 31 28 33 33 36 37 28 18 22
39 35 31 28 27 26 25 24 23 22 24 25 25 25 26 31 33 26 21 19 19 20
32 30 29 27 25 22 21 20 20 19 20 18 16 18 19 17 16 18 18 13 8 6
32 30 28 26 23 20 20 20 19 18 17 17 16 14 13 11 8 9 10 8 11 7
29 27 24 23 21 20 19 19 19 21 21 17 15 17 18 15 12 12 12 10 7 6
31 29 27 24 21 22 24 24 23 24 20 19 23 23 19 17 11 9 9 6 6 6
36 34 30 27 28 29 30 28 26 24 24 20 19 18 16 13 10 9 7 6 7 5
Wind_Direction_500mb
242 242 245 248 251 253 257 260 262 263 264 263 264 265 264 264 267 269 272 274 275 278
241 241 243 246 249 253 255 259 263 262 261 260 261 265 263 263 270 277 280 281 279 276
246 242 242 246 250 254 258 259 261 261 261 259 258 258 260 265 270 275 275 279 285 290
246 243 242 247 251 253 255 255 257 258 258 257 257 255 259 265 267 273 274 281 285 286
240 239 240 243 246 248 250 251 253 255 254 252 255 256 256 259 265 273 276 276 282 292
236 235 236 239 241 243 246 249 249 248 247 248 247 244 254 256 259 279 278 273 281 279
227 229 231 233 237 241 245 247 248 246 242 243 243 247 249 251 254 259 274 276 278 276
215 218 221 224 228 232 238 241 242 242 237 235 229 232 231 235 247 256 266 269 265 282
202 203 205 209 216 222 227 228 230 230 232 230 231 234 241 245 253 258 259 259 261 265
190 193 197 202 207 212 220 227 227 225 225 221 221 225 229 230 243 256 253 237 209 205
194 198 199 202 205 210 218 219 212 203 196 189 192 192 168 148 132 137 137 165 172 174
205 207 208 209 210 209 203 197 195 186 174 160 147 131 137 130 130 140 152 175 198 237
210 212 214 213 208 198 191 184 177 166 149 132 135 136 138 153 170 206 238 273 258 278
210 210 208 204 195 193 183 175 166 157 148 143 146 157 171 186 209 246 253 246 246 242
Wind_Speed_850mb
71 72 68 66 64 60 52 46 42 42 42 41 42 45 49 51 53 53 55 56 56 59
76 74 66 61 59 56 50 46 43 43 43 44 43 43 42 45 44 43 44 46 47 50
66 71 68 65 61 59 53 48 46 45 44 42 42 40 38 41 41 46 47 47 48 47
64 62 65 63 61 58 54 52 50 47 45 44 39 39 42 42 44 48 49 41 42 41
54 52 53 54 54 52 52 51 49 45 43 42 41 39 43 42 42 46 30 40 45 34
52 52 50 48 48 49 48 47 44 43 40 40 39 42 40 37 42 43 39 34 36 42
49 46 45 44 44 43 41 41 41 41 39 37 40 37 41 39 33 35 34 39 49 40
42 42 41 39 37 36 35 35 34 33 32 30 29 31 28 33 33 36 37 28 18 22
39 35 31 28 27 26 25 24 23 22 24 25 25 25 26 31 33 26 21 19 19 20
32 30 29 27 25 22 21 20 20 19 20 18 16 18 19 17 16 18 18 13 8 6
32 30 28 26 23 20 20 20 19 18 17 17 16 14 13 11 8 9 10 8 11 7
29 27 24 23 21 20 19 19 19 21 21 17 15 17 18 15 12 12 12 10 7 6
31 29 27 24 21 22 24 24 23 24 20 19 23 23 19 17 11 9 9 6 6 6
36 34 30 27 28 29 30 28 26 24 24 20 19 18 16 13 10 9 7 6 7 5
Wind_Direction_850mb
242 242 245 248 251 253 257 260 262 263 264 263 264 265 264 264 267 269 272 274 275 278
241 241 243 246 249 253 255 259 263 262 261 260 261 265 263 263 270 277 280 281 279 276
246 242 242 246 250 254 258 259 261 261 261 259 258 258 260 265 270 275 275 279 285 290
246 243 242 247 251 253 255 255 257 258 258 257 257 255 259 265 267 273 274 281 285 286
240 239 240 243 246 248 250 251 253 255 254 252 255 256 256 259 265 273 276 276 282 292
236 235 236 239 241 243 246 249 249 248 247 248 247 244 254 256 259 279 278 273 281 279
227 229 231 233 237 241 245 247 248 246 242 243 243 247 249 251 254 259 274 276 278 276
215 218 221 224 228 232 238 241 242 242 237 235 229 232 231 235 247 256 266 269 265 282
202 203 205 209 216 222 227 228 230 230 232 230 231 234 241 245 253 258 259 259 261 265
190 193 197 202 207 212 220 227 227 225 225 221 221 225 229 230 243 256 253 237 209 205
194 198 199 202 205 210 218 219 212 203 196 189 192 192 168 148 132 137 137 165 172 174
205 207 208 209 210 209 203 197 195 186 174 160 147 131 137 130 130 140 152 175 198 237
210 212 214 213 208 198 191 184 177 166 149 132 135 136 138 153 170 206 238 273 258 278
210 210 208 204 195 193 183 175 166 157 148 143 146 157 171 186 209 246 253 246 246 242